Simultaneous Nadir Overpasses (SNOs) Predictions

Prediction of SNOs between GOES-14 and NOAA-20 Satellite Orbit:

Table of predicted SNOs for the next 14.0 days since TLE Epoch: 7/24/2020
Index Date Time (GOES-14) GOES-14 Lat,Lon NOAA-20 Lat,Lon Distance(km) Time Diff (sec)
1 07/24/2020 20:28:30 0.32,-104.52 0.00,-105.92 159.95 0
2 07/25/2020 20:11:04 0.31,-104.53 0.99,-101.39 357.96 80
3 07/27/2020 08:30:12 -0.34,-104.34 0.17,-106.66 263.75 80
4 07/28/2020 08:14:06 -0.33,-104.35 -0.83,-102.12 253.52 80
5 07/29/2020 20:33:22 0.36,-104.55 -0.31,-107.44 329.54 80
6 07/30/2020 20:17:18 0.35,-104.56 0.75,-102.91 188.14 80
7 08/01/2020 08:39:04 -0.38,-104.38 0.47,-108.17 432.68 80
8 08/02/2020 08:20:19 -0.37,-104.38 -0.52,-103.64 84.49 80
9 08/03/2020 20:39:36 0.40,-104.57 -0.55,-108.96 499.47 80
10 08/04/2020 20:23:31 0.39,-104.58 0.45,-104.43 18.76 80
11 08/07/2020 08:26:31 -0.40,-104.43 -0.23,-105.15 82.50 80
